Stations météo

réclame
Mon MeteoGroup
Magdeburg, Allemagne (10361): Température de l'air & dewpoint: 14.06.2018 07:00:00 - 20.06.2018 07:00:00 (CEST)Magdeburg, Allemagne (10361): Température de l'air 5cm & Température de l'air -5cm: 14.06.2018 07:00:00 - 20.06.2018 07:00:00 (CEST)Magdeburg, Allemagne (10361): Température de l'air -20cm & Température de l'air -100cm: 14.06.2018 07:00:00 - 20.06.2018 07:00:00 (CEST)Magdeburg, Allemagne (10361): Vitesse du vent & gusts: 14.06.2018 07:00:00 - 20.06.2018 07:00:00 (CEST)Magdeburg, Allemagne (10361): Direction du vent: 14.06.2018 07:00:00 - 20.06.2018 07:00:00 (CEST)Magdeburg, Allemagne (10361): reduced air pressure: 14.06.2018 07:00:00 - 20.06.2018 07:00:00 (CEST)Magdeburg, Allemagne (10361): visibility: 14.06.2018 07:00:00 - 20.06.2018 07:00:00 (CEST)Magdeburg, Allemagne (10361): Ensoleillement: 14.06.2018 07:00:00 - 20.06.2018 07:00:00 (CEST)Magdeburg, Allemagne (10361): Quantités de précipitations: 14.06.2018 07:00:00 - 20.06.2018 07:00:00 (CEST)
Date & Time tt [°C] td [°C] tt 5cm [°C] tt -5cm [°C] tt -20cm [°C] tt -100cm [°C] ff [km/h] ff [knt] fx [km/h] fx [knt] dd ppp [hPa] vv [km] sd [min] rr [mm]
20.06.2018 07:00:00 18,2 15,6 18,5 20,6 22,0 17,6 4 2 10 5 SSW 1023,2 11 0 0,0
20.06.2018 06:00:00 17,4 15,4 16,9 20,2 22,2 17,6 6 3 11 6 SSW 1023,3 10 0 0,0
20.06.2018 05:00:00 17,2 15,4 16,2 20,2 22,4 17,6 3 2 8 4 SSW 1023,3 12 0 0,0
20.06.2018 04:00:00 17,1 15,3 16,3 20,2 22,6 17,6 5 3 9 5 SW 1023,4 11 0 0,0
20.06.2018 03:00:00 16,6 14,7 15,5 20,2 22,9 17,6 3 1 3 2 S 1023,5 12 0 0,0
20.06.2018 02:00:00 17,0 15,1 15,2 20,1 23,3 17,6 0 0 7 4 N 1023,6 13 0 0,0
20.06.2018 01:00:00 15,8 14,9 11,8 20,2 23,6 17,6 4 2 6 4 WSW 1023,6 11 0 0,0
20.06.2018 00:00:00 16,4 14,8 12,3 21,0 24,0 17,6 4 2 7 4 W 1023,5 11 0 0,0
19.06.2018 23:00:00 17,4 15,0 13,6 22,1 24,3 17,6 4 2 10 5 WNW 1023,3 15 0 0,0
19.06.2018 22:00:00 18,9 15,3 14,8 23,5 24,5 17,6 6 3 10 5 W 1022,8 22 1 0,0
19.06.2018 21:00:00 20,9 15,3 19,4 25,3 24,6 17,6 4 2 19 10 WNW 1022,5 33 60 0,0
19.06.2018 20:00:00 22,5 15,2 23,1 27,0 24,6 17,6 8 5 24 13 WNW 1022,4 42 15 0,0
19.06.2018 19:00:00 22,0 15,1 22,7 27,5 24,6 17,6 10 5 28 15 W 1022,4 43 0 0,0
19.06.2018 18:00:00 22,5 15,3 23,3 28,6 24,5 17,6 9 5 27 14 WNW 1022,4 60 0 0,0
19.06.2018 17:00:00 22,9 15,4 24,5 29,1 24,3 17,6 13 7 32 17 W 1022,3 37 1 0,0
19.06.2018 16:00:00 23,2 15,2 25,0 29,7 24,0 17,6 12 6 25 13 W 1022,0 40 0 0,0
19.06.2018 15:00:00 23,2 14,7 25,2 30,6 23,7 17,6 11 6 29 16 WNW 1021,8 45 4 0,0
19.06.2018 14:00:00 22,9 15,1 25,8 30,3 23,3 17,6 13 7 28 15 W 1021,7 41 3 0,0
19.06.2018 13:00:00 22,4 14,7 25,5 29,0 23,0 17,6 17 9 32 17 W 1021,6 33 5 0,0
19.06.2018 12:00:00 22,5 13,6 24,7 28,0 22,7 17,6 13 7 27 15 W 1021,4 35 0 0,0
19.06.2018 11:00:00 22,0 13,1 24,5 26,6 22,5 17,6 13 7 23 13 W 1021,0 45 0 0,0
19.06.2018 10:00:00 21,1 12,4 23,3 25,9 22,3 17,6 12 7 25 14 WSW 1021,0 30 18 0,0
19.06.2018 09:00:00 20,3 13,0 23,1 24,0 22,3 17,6 15 8 27 15 W 1020,9 9 60 0,0
19.06.2018 08:00:00 19,2 13,6 20,8 21,9 22,5 17,6 10 6 25 13 W 1020,9 9 60 0,0
19.06.2018 07:00:00 18,0 13,6 18,1 20,6 22,7 17,6 10 6 26 14 W 1021,0 11 49 0,0
19.06.2018 06:00:00 17,0 14,5 15,8 20,7 22,9 17,6 7 4 16 9 W 1020,5 13 0 0,0
19.06.2018 05:00:00 17,3 14,7 16,2 20,9 23,2 17,6 4 2 18 10 NW 1020,1 28 0 0,0
19.06.2018 04:00:00 18,9 13,9 18,0 21,3 23,5 17,6 10 5 19 10 W 1019,6 55 0 0,0
19.06.2018 03:00:00 17,6 14,0 15,2 21,5 23,7 17,5 8 4 12 6 SSW 1019,7 53 0 0,0
19.06.2018 02:00:00 18,5 14,3 16,8 22,2 24,0 17,5 6 3 12 7 SSW 1019,8 52 0 0,0
19.06.2018 01:00:00 19,2 14,4 18,1 23,0 24,3 17,5 6 3 15 8 WSW 1019,9 63 0 0,0
19.06.2018 00:00:00 19,8 14,1 18,6 23,6 24,6 17,5 8 4 16 9 WSW 1019,9 58 0 0,0
18.06.2018 23:00:00 20,2 13,8 19,2 24,3 24,8 17,5 8 4 17 9 W 1019,9 70 0 0,0
18.06.2018 22:00:00 20,7 14,0 18,9 25,4 25,0 17,5 4 2 11 6 WSW 1019,5 69 0 0,0
18.06.2018 21:00:00 21,7 13,5 20,6 26,8 25,1 17,5 6 4 12 6 SW 1019,0 70 11 0,0
18.06.2018 20:00:00 22,3 13,0 21,5 28,9 25,0 17,5 8 5 21 11 W 1018,9 70 45 0,0
18.06.2018 19:00:00 22,5 13,8 23,4 29,9 24,9 17,5 8 4 24 13 SW 1019,1 62 31 0,0
18.06.2018 18:00:00 22,6 13,0 25,1 30,2 24,7 17,5 12 7 27 14 WSW 1019,4 33 11 0,0
18.06.2018 17:00:00 22,6 13,0 26,3 30,6 24,4 17,5 11 6 23 12 WSW 1019,6 41 6 0,0
18.06.2018 16:00:00 22,9 14,1 27,3 32,1 24,0 17,5 12 7 29 16 WSW 1019,8 25 22 0,0
18.06.2018 15:00:00 22,8 12,9 28,5 32,6 23,5 17,5 11 6 31 17 W 1019,8 20 32 0,0
18.06.2018 14:00:00 21,4 10,8 23,7 32,0 22,9 17,5 15 8 28 15 WSW 1020,1 32 31 0,0
18.06.2018 13:00:00 22,1 11,5 27,5 31,6 22,4 17,5 12 7 27 14 SW 1020,1 21 54 0,0
18.06.2018 12:00:00 20,4 10,9 25,8 29,0 22,0 17,5 17 9 26 14 SW 1020,3 15 33 0,0
18.06.2018 11:00:00 19,7 10,8 23,2 26,3 21,7 17,5 12 6 26 14 WSW 1020,7 18 0 0,0
18.06.2018 10:00:00 19,2 10,3 23,1 25,5 21,5 17,5 10 5 20 11 WSW 1020,5 27 52 0,0
18.06.2018 09:00:00 17,9 10,9 20,9 22,6 21,5 17,5 9 5 17 9 W 1020,2 12 60 0,0
18.06.2018 08:00:00 16,7 11,6 17,6 20,4 21,6 17,5 8 4 13 7 W 1020,3 18 6 0,0
18.06.2018 07:00:00 15,7 11,3 15,8 19,2 21,8 17,5 5 3 11 6 W 1020,0 26 0 0,0
18.06.2018 06:00:00 15,2 11,1 14,5 19,1 22,1 17,5 6 4 11 6 WSW 1020,1 27 0 0,0
18.06.2018 05:00:00 15,0 11,0 13,7 19,3 22,3 17,5 4 2 8 4 WSW 1019,7 38 0 0,0
18.06.2018 04:00:00 15,4 11,0 14,0 19,6 22,6 17,5 3 1 11 6 NW 1019,3 46 0 0,0
18.06.2018 03:00:00 15,8 10,5 14,7 19,9 22,9 17,5 5 3 10 5 W 1019,5 45 0 0,0
18.06.2018 02:00:00 14,9 10,4 13,7 19,9 23,3 17,5 4 2 11 6 WSW 1019,2 34 0 0,0
18.06.2018 01:00:00 14,9 10,1 12,4 20,2 23,7 17,5 3 2 10 6 WNW 1018,8 41 0 0,0
18.06.2018 00:00:00 15,4 10,7 11,5 21,2 24,0 17,5 5 3 9 5 W 1018,5 42 0 0,0
17.06.2018 23:00:00 16,3 10,5 13,3 22,3 24,3 17,5 3 2 10 5 WNW 1018,3 51 0 0,0
17.06.2018 22:00:00 18,3 10,2 16,6 23,7 24,6 17,5 4 2 11 6 NW 1017,9 12 0 0,0
17.06.2018 21:00:00 19,9 10,3 18,8 25,2 24,7 17,5 4 2 19 10 NW 1017,4 58 0 0,0
17.06.2018 20:00:00 21,1 10,0 20,8 26,7 24,8 17,5 8 4 24 13 NW 1017,0 57 1 0,0
17.06.2018 19:00:00 21,8 9,6 22,2 28,8 24,7 17,5 9 5 29 16 NW 1016,6 38 22 0,0
17.06.2018 18:00:00 22,9 9,2 24,3 30,2 24,5 17,5 10 5 29 16 NW 1016,3 46 45 0,0
17.06.2018 17:00:00 22,5 9,5 23,9 30,1 24,2 17,5 11 6 31 17 WNW 1016,2 53 17 0,0
17.06.2018 16:00:00 22,9 9,6 25,1 30,5 23,9 17,5 16 9 33 18 W 1015,9 33 20 0,0
17.06.2018 15:00:00 22,8 9,7 24,8 31,6 23,4 17,5 16 9 34 19 W 1015,7 31 34 0,0
17.06.2018 14:00:00 22,7 10,5 26,8 30,3 23,0 17,5 18 10 33 18 W 1015,7 27 21 0,0
17.06.2018 13:00:00 22,5 10,6 25,6 30,5 22,5 17,5 16 9 31 17 W 1015,7 37 46 0,0
17.06.2018 12:00:00 21,0 11,5 23,1 28,2 22,2 17,4 14 8 32 17 W 1015,9 21 38 0,0
17.06.2018 11:00:00 21,3 11,8 25,8 26,7 21,9 17,4 11 6 23 12 W 1015,9 19 46 0,0
17.06.2018 10:00:00 19,5 13,9 21,1 23,9 21,9 17,4 11 6 22 12 W 1016,1 21 3 0,0
17.06.2018 09:00:00 19,5 14,4 21,7 22,7 21,9 17,4 8 4 24 13 WNW 1015,5 20 23 0,0
17.06.2018 08:00:00 18,3 14,5 19,8 21,3 22,0 17,4 8 5 17 9 W 1014,9 18 41 0,0
17.06.2018 07:00:00 17,2 14,2 17,0 20,0 22,2 17,4 4 2 14 8 WNW 1014,6 21 20 0,0
17.06.2018 06:00:00 16,0 13,4 15,6 19,3 22,5 17,4 4 2 12 7 W 1014,5 20 7 0,0
17.06.2018 05:00:00 16,3 12,6 14,3 19,3 22,9 17,4 5 3 16 9 WNW 1014,3 26 0 0,0
17.06.2018 04:00:00 17,3 12,3 14,6 19,9 23,2 17,4 8 4 14 8 SSW 1013,3 27 0 0,0
17.06.2018 03:00:00 17,0 12,6 12,5 20,6 23,6 17,4 6 3 10 6 SSW 1013,4 22 0 0,0
17.06.2018 02:00:00 17,7 13,0 13,9 21,1 24,0 17,5 6 3 10 5 SSW 1013,5 24 0 0,0
17.06.2018 01:00:00 16,7 13,4 12,2 21,5 24,4 17,5 4 2 6 3 S 1013,7 25 0 0,0
17.06.2018 00:00:00 17,5 13,5 12,7 22,5 24,8 17,5 5 3 10 5 W 1013,9 31 0 0,0
16.06.2018 23:00:00 18,8 13,3 13,5 23,9 25,1 17,5 5 3 6 4 SSW 1013,9 44 0 0,0
16.06.2018 22:00:00 21,1 13,7 17,1 25,7 25,3 17,5 3 2 10 5 SSW 1013,6 10 6 0,0
16.06.2018 21:00:00 23,8 13,7 20,3 27,7 25,4 17,5 3 1 11 6 W 1013,2 70 49 0,0
16.06.2018 20:00:00 25,2 13,0 24,7 29,3 25,4 17,5 5 3 10 6 SSW 1013,2 67 3 0,0
16.06.2018 19:00:00 25,9 11,0 26,3 30,9 25,2 17,5 8 4 18 10 S 1013,1 64 2 0,0
16.06.2018 18:00:00 26,2 11,0 27,3 32,7 24,9 17,5 9 5 21 12 S 1013,3 70 48 0,0
16.06.2018 17:00:00 26,7 12,1 30,2 33,2 24,5 17,5 6 3 18 10 SSW 1013,6 65 28 0,0
16.06.2018 16:00:00 25,6 12,1 28,6 32,9 24,0 17,5 8 4 18 10 WSW 1014,0 47 11 0,0
16.06.2018 15:00:00 26,2 11,1 30,0 35,3 23,3 17,5 9 5 22 12 SSE 1014,2 38 52 0,0
16.06.2018 14:00:00 26,4 12,8 32,3 33,9 22,7 17,5 8 5 22 12 SSE 1015,0 31 53 0,0
16.06.2018 13:00:00 24,4 12,1 27,8 30,5 22,2 17,5 9 5 22 12 S 1015,7 42 5 0,0
16.06.2018 12:00:00 24,3 13,4 27,6 29,3 21,7 17,5 9 5 22 12 S 1015,9 30 4 0,0
16.06.2018 11:00:00 23,9 13,3 27,8 27,8 21,3 17,5 9 5 21 11 SSE 1016,1 17 21 0,0
16.06.2018 10:00:00 22,5 13,6 26,2 26,0 21,0 17,5 9 5 20 11 SSE 1016,3 17 60 0,0
16.06.2018 09:00:00 21,2 13,7 23,0 23,3 20,9 17,5 8 4 16 8 SSE 1016,4 25 45 0,0
16.06.2018 08:00:00 20,6 14,5 22,0 21,3 21,0 17,5 5 3 11 6 SSE 1016,3 19 58 0,0
16.06.2018 07:00:00 17,9 14,6 17,2 18,7 21,2 17,5 3 1 5 3 ESE 1016,5 14 27 0,0
16.06.2018 06:00:00 15,6 13,6 12,1 18,8 21,5 17,5 3 2 5 3 SE 1016,6 15 0 0,0
16.06.2018 05:00:00 16,7 13,9 15,0 19,3 21,7 17,5 3 2 8 4 NE 1016,8 18 0 0,0
16.06.2018 04:00:00 16,3 13,5 14,7 19,4 22,0 17,5 4 2 6 4 S 1016,9 22 0 0,0
16.06.2018 03:00:00 15,9 13,5 13,1 19,7 22,2 17,5 2 1 4 2 S 1016,9 25 0 0,0
16.06.2018 02:00:00 16,8 13,5 15,0 20,3 22,5 17,5 3 2 4 2 SSE 1017,0 25 0 0,0
16.06.2018 01:00:00 16,7 13,6 14,4 20,8 22,8 17,5 3 1 3 2 NW 1017,1 27 0 0,0
16.06.2018 00:00:00 17,9 13,1 15,1 21,8 23,0 17,5 3 1 5 3 NNE 1017,0 45 0 0,0
15.06.2018 23:00:00 18,8 13,9 17,1 22,6 23,2 17,5 4 2 5 3 NW 1017,1 41 0 0,0
15.06.2018 22:00:00 19,5 13,5 17,6 23,5 23,3 17,5 3 1 5 3 N 1017,0 28 0 0,0
15.06.2018 21:00:00 20,7 13,4 19,6 24,8 23,3 17,5 3 2 7 4 NW 1016,7 46 0 0,0
15.06.2018 20:00:00 21,7 13,4 21,5 26,3 23,2 17,5 4 2 9 5 NNW 1016,6 52 0 0,0
15.06.2018 19:00:00 22,3 12,8 23,7 28,0 23,0 17,5 4 2 12 6 NNE 1016,6 57 4 0,0
15.06.2018 18:00:00 22,6 11,6 24,9 29,1 22,6 17,5 3 2 11 6 NNE 1016,6 70 10 0,0
15.06.2018 17:00:00 22,3 11,7 25,8 29,5 22,1 17,5 5 3 12 6 WNW 1016,9 60 34 0,0
15.06.2018 16:00:00 22,8 11,7 28,3 29,2 21,6 17,5 4 2 13 7 NNW 1017,0 44 48 0,0
15.06.2018 15:00:00 22,0 13,5 26,1 28,4 21,2 17,5 3 2 16 8 ESE 1017,1 42 42 0,0
15.06.2018 14:00:00 19,0 14,1 20,5 24,2 21,1 17,5 9 5 17 9 WSW 1017,7 61 9 0,0
15.06.2018 13:00:00 17,7 14,2 18,6 22,1 21,1 17,5 9 5 16 9 SW 1017,9 34 0 0,2
15.06.2018 12:00:00 16,0 15,0 16,1 20,7 21,2 17,5 8 4 12 6 WSW 1018,1 3,3 0 0,4
15.06.2018 11:00:00 16,0 15,2 16,0 21,3 21,2 17,5 5 3 9 5 SSW 1018,0 3,5 0 0,1
15.06.2018 10:00:00 16,2 14,7 16,2 20,8 21,2 17,6 3 1 10 5 NW 1017,8 4,0 0 0,2
15.06.2018 09:00:00 16,8 13,7 17,6 20,7 21,3 17,6 4 2 9 5 NW 1017,3 15 0 0,0
15.06.2018 08:00:00 16,6 12,9 17,1 20,4 21,5 17,6 4 2 9 5 W 1017,0 16 0 0,0
15.06.2018 07:00:00 16,0 12,4 16,0 19,7 21,7 17,6 4 2 6 3 W 1016,5 12 0 0,0
15.06.2018 06:00:00 15,4 12,6 15,0 19,5 21,9 17,6 3 1 5 3 W 1016,2 10 0 0,0
15.06.2018 05:00:00 14,9 12,5 14,1 19,6 22,2 17,6 3 1 6 4 SSW 1016,0 9 0 0,0
15.06.2018 04:00:00 14,9 12,2 13,6 19,8 22,5 17,6 4 2 8 4 WSW 1016,0 9 0 0,0
15.06.2018 03:00:00 15,2 12,0 14,1 20,3 22,8 17,6 3 2 10 5 W 1015,9 13 0 0,0
15.06.2018 02:00:00 15,4 11,8 14,6 20,7 23,1 17,6 4 2 11 6 NW 1015,8 15 0 0,0
15.06.2018 01:00:00 16,1 12,0 15,2 21,3 23,5 17,6 5 3 16 9 NNW 1015,7 15 0 0,0
15.06.2018 00:00:00 16,5 11,1 15,5 21,9 23,9 17,6 4 2 19 10 NW 1015,6 21 0 0,0
14.06.2018 23:00:00 16,7 10,4 13,1 22,8 24,2 17,6 4 2 8 4 W 1014,8 45 0 0,0
14.06.2018 22:00:00 17,2 11,0 12,9 24,2 24,5 17,6 4 2 8 4 WNW 1014,4 56 0 0,0
14.06.2018 21:00:00 20,0 10,8 16,4 26,6 24,6 17,6 3 1 12 7 NW 1013,7 70 22 0,0
14.06.2018 20:00:00 22,4 8,7 22,3 29,3 24,4 17,7 6 3 17 9 NW 1013,1 70 60 0,0
14.06.2018 19:00:00 23,7 7,5 25,9 31,6 24,1 17,7 5 3 17 9 WNW 1012,6 70 60 0,0
14.06.2018 18:00:00 23,2 8,2 26,5 32,9 23,7 17,7 6 4 22 12 WNW 1012,8 65 60 0,0
14.06.2018 17:00:00 22,6 7,5 27,5 33,7 23,1 17,7 4 2 21 12 S 1013,2 37 60 0,0
14.06.2018 16:00:00 21,9 6,7 28,4 33,9 22,4 17,7 4 2 18 10 W 1013,9 45 60 0,0
14.06.2018 15:00:00 21,0 7,9 26,4 33,2 21,6 17,7 10 5 21 11 SW 1014,5 30 60 0,0
14.06.2018 14:00:00 20,4 8,7 26,0 32,0 20,9 17,7 13 7 24 13 WSW 1015,2 29 60 0,0
14.06.2018 13:00:00 19,3 7,8 25,6 30,2 20,2 17,7 9 5 19 11 WSW 1015,8 31 60 0,0
14.06.2018 12:00:00 18,2 7,5 23,5 27,4 19,7 17,7 9 5 18 10 SSW 1016,1 28 52 0,0
14.06.2018 11:00:00 16,9 7,0 21,8 24,2 19,3 17,7 6 4 17 9 WSW 1016,6 36 28 0,0
14.06.2018 10:00:00 16,4 6,9 20,0 23,0 19,0 17,7 7 4 14 8 WSW 1016,8 22 57 0,0
14.06.2018 09:00:00 16,0 6,6 19,3 19,9 18,9 17,7 5 3 14 7 WNW 1016,9 24 60 0,0
14.06.2018 08:00:00 14,8 7,2 16,7 17,3 19,0 17,7 4 2 9 5 N 1017,1 26 60 0,0
14.06.2018 07:00:00 12,5 7,7 12,9 15,6 19,1 17,7 4 2 11 6 WNW 1017,2 25 19 0,0

tt = Température de l'air
td = dewpoint
tt 5cm = Température de l'air 5cm
tt -5cm = Température de l'air -5cm
tt -20cm = Température de l'air -20cm
tt -100cm = Température de l'air -100cm
ff = Vitesse du vent
fx = gusts
dd = Direction du vent
ppp = reduced air pressure
vv = visibility
sd = Ensoleillement
rr = Quantités de précipitations

stations d'obs. à proximité